When you browse on this site, cookies collect data to enhance your experience and personalize the content and advertising you see.
Visit our Privacy Policy to learn more. By continuing to use the site, you agree to this use of cookies and data.
  • In United Kingdom
  • List of Countries
  • For 7 days
  • Water Temperature
  • Satellite Maps
  • Weather Map
  • Weather Widgets
  • user-avatar
    Login

    Hourly Weather Libourne

    Today, 18 February, Monday

    Time Temperature Precipitation Wind Pressure Humidity
    00:00 +7°C° 0 mm 4 mps 760 mmHg 79%
    01:00 +6°C° 0 mm 4 mps 760 mmHg 80%
    02:00 +6°C° 0 mm 4 mps 759 mmHg 82%
    03:00 +6°C° 0 mm 4 mps 759 mmHg 84%
    04:00 +6°C° 0 mm 4 mps 759 mmHg 85%
    05:00 +5°C° 0 mm 3 mps 759 mmHg 86%
    06:00 +5°C° 0 mm 3 mps 759 mmHg 88%
    07:00 +7°C° 0 mm 3 mps 759 mmHg 85%
    08:00 +7°C° 0 mm 4 mps 759 mmHg 82%
    09:00 +8°C° 0 mm 4 mps 760 mmHg 80%
    10:00 +11°C° 0 mm 4 mps 760 mmHg 73%
    11:00 +12°C° 0 mm 4 mps 760 mmHg 66%
    12:00 +14°C° 0 mm 3 mps 760 mmHg 59%
    13:00 +16°C° 0 mm 3 mps 759 mmHg 56%
    14:00 +16°C° 0 mm 3 mps 759 mmHg 53%
    15:00 +17°C° 0 mm 3 mps 759 mmHg 49%
    16:00 +15°C° 0 mm 2 mps 760 mmHg 57%
    17:00 +13°C° 0 mm 2 mps 760 mmHg 64%
    18:00 +11°C° 0 mm 1 mps 760 mmHg 72%
    19:00 +11°C° 0 mm 1 mps 760 mmHg 78%
    20:00 +10°C° 0 mm 1 mps 761 mmHg 84%
    21:00 +9°C° 0 mm 1 mps 761 mmHg 91%
    22:00 +9°C° 0 mm 1 mps 762 mmHg 92%
    23:00 +8°C° 0 mm 1 mps 762 mmHg 94%

    Tomorrow, 19 February, Tuesday

    Time Temperature Precipitation Wind Pressure Humidity
    00:00 +8°C° 0 mm 1 mps 762 mmHg 95%
    01:00 +8°C° 0 mm 1 mps 762 mmHg 96%
    02:00 +8°C° 0 mm 1 mps 762 mmHg 96%
    03:00 +8°C° 0 mm 1 mps 762 mmHg 96%
    04:00 +8°C° 0 mm 1 mps 762 mmHg 96%
    05:00 +7°C° 0 mm 0 mps 762 mmHg 96%
    06:00 +7°C° 0 mm 0 mps 762 mmHg 96%
    07:00 +7°C° 0 mm 0 mps 763 mmHg 93%
    08:00 +8°C° 0 mm 0 mps 763 mmHg 90%
    09:00 +10°C° 0 mm 1 mps 763 mmHg 87%
    10:00 +11°C° 0 mm 1 mps 763 mmHg 81%
    11:00 +13°C° 0 mm 1 mps 763 mmHg 75%
    12:00 +14°C° 0 mm 1 mps 763 mmHg 70%
    13:00 +14°C° 0 mm 1 mps 763 mmHg 69%
    14:00 +14°C° 0 mm 1 mps 762 mmHg 69%
    15:00 +14°C° 0 mm 1 mps 762 mmHg 69%
    16:00 +13°C° 0 mm 1 mps 762 mmHg 75%
    17:00 +12°C° 0 mm 1 mps 762 mmHg 80%
    18:00 +11°C° 0 mm 1 mps 762 mmHg 86%
    19:00 +10°C° 0 mm 1 mps 762 mmHg 88%
    20:00 +9°C° 0 mm 1 mps 762 mmHg 91%
    21:00 +9°C° 0 mm 1 mps 762 mmHg 93%
    22:00 +8°C° 0 mm 1 mps 762 mmHg 93%
    23:00 +8°C° 0 mm 1 mps 762 mmHg 93%

    Day after tomorrow, 20 February, Wednesday

    Time Temperature Precipitation Wind Pressure Humidity
    00:00 +8°C° 0 mm 1 mps 762 mmHg 93%
    01:00 +7°C° 0 mm 1 mps 762 mmHg 93%
    02:00 +7°C° 0 mm 1 mps 762 mmHg 93%
    03:00 +7°C° 0 mm 1 mps 762 mmHg 94%
    04:00 +7°C° 0 mm 1 mps 762 mmHg 94%
    05:00 +7°C° 0 mm 1 mps 762 mmHg 94%
    06:00 +7°C° 0 mm 1 mps 762 mmHg 94%
    07:00 +8°C° 0 mm 1 mps 762 mmHg 90%
    08:00 +9°C° 0 mm 1 mps 763 mmHg 86%
    09:00 +9°C° 0 mm 2 mps 763 mmHg 82%
    10:00 +12°C° 0 mm 1 mps 763 mmHg 75%
    11:00 +14°C° 0 mm 1 mps 763 mmHg 67%
    12:00 +16°C° 0 mm 1 mps 764 mmHg 60%
    13:00 +16°C° 0 mm 1 mps 763 mmHg 57%
    14:00 +18°C° 0 mm 1 mps 763 mmHg 55%
    15:00 +17°C° 0 mm 0 mps 763 mmHg 52%
    16:00 +16°C° 0 mm 1 mps 763 mmHg 59%
    17:00 +14°C° 0 mm 1 mps 764 mmHg 66%
    18:00 +12°C° 0 mm 1 mps 764 mmHg 73%
    19:00 +11°C° 0 mm 1 mps 764 mmHg 76%
    20:00 +11°C° 0 mm 1 mps 765 mmHg 79%
    21:00 +10°C° 0 mm 1 mps 765 mmHg 82%
    22:00 +10°C° 0 mm 1 mps 765 mmHg 83%
    23:00 +9°C° 0 mm 1 mps 765 mmHg 84%

    21 February, Thursday

    Time Temperature Precipitation Wind Pressure Humidity
    00:00 +9°C° 0 mm 1 mps 765 mmHg 85%
    01:00 +9°C° 0 mm 1 mps 765 mmHg 85%
    02:00 +9°C° 0 mm 1 mps 765 mmHg 85%
    03:00 +8°C° 0 mm 1 mps 765 mmHg 85%
    04:00 +7°C° 0 mm 2 mps 765 mmHg 86%
    05:00 +7°C° 0 mm 2 mps 765 mmHg 86%
    06:00 +7°C° 0 mm 2 mps 765 mmHg 87%
    07:00 +8°C° 0 mm 2 mps 766 mmHg 83%
    08:00 +9°C° 0 mm 2 mps 766 mmHg 79%
    09:00 +10°C° 0 mm 3 mps 766 mmHg 75%
    10:00 +12°C° 0 mm 3 mps 766 mmHg 68%
    11:00 +14°C° 0 mm 3 mps 766 mmHg 62%
    12:00 +17°C° 0 mm 3 mps 766 mmHg 56%
    13:00 +18°C° 0 mm 3 mps 766 mmHg 55%
    14:00 +18°C° 0 mm 2 mps 766 mmHg 53%
    15:00 +19°C° 0 mm 2 mps 765 mmHg 51%
    16:00 +17°C° 0 mm 2 mps 766 mmHg 58%
    17:00 +15°C° 0 mm 2 mps 766 mmHg 65%
    18:00 +14°C° 0 mm 2 mps 766 mmHg 72%
    19:00 +13°C° 0 mm 2 mps 767 mmHg 74%
    20:00 +12°C° 0 mm 2 mps 767 mmHg 75%
    21:00 +10°C° 0 mm 2 mps 768 mmHg 77%
    22:00 +10°C° 0 mm 2 mps 768 mmHg 78%
    23:00 +10°C° 0 mm 2 mps 768 mmHg 79%

    22 February, Friday

    Time Temperature Precipitation Wind Pressure Humidity
    00:00 +9°C° 0 mm 2 mps 768 mmHg 81%
    01:00 +9°C° 0 mm 2 mps 768 mmHg 82%
    02:00 +8°C° 0 mm 2 mps 768 mmHg 83%
    03:00 +8°C° 0 mm 2 mps 768 mmHg 84%
    04:00 +8°C° 0 mm 2 mps 768 mmHg 85%
    05:00 +8°C° 0 mm 2 mps 768 mmHg 86%
    06:00 +8°C° 0 mm 1 mps 768 mmHg 86%
    07:00 +9°C° 0 mm 1 mps 768 mmHg 82%
    08:00 +11°C° 0 mm 1 mps 769 mmHg 77%
    09:00 +12°C° 0 mm 1 mps 769 mmHg 72%
    10:00 +14°C° 0 mm 2 mps 769 mmHg 65%
    11:00 +16°C° 0 mm 2 mps 768 mmHg 58%
    12:00 +18°C° 0 mm 2 mps 768 mmHg 51%
    13:00 +19°C° 0 mm 2 mps 768 mmHg 50%
    14:00 +19°C° 0 mm 2 mps 767 mmHg 49%
    15:00 +20°C° 0 mm 2 mps 767 mmHg 47%
    16:00 +18°C° 0 mm 2 mps 767 mmHg 54%
    17:00 +16°C° 0 mm 1 mps 767 mmHg 62%
    18:00 +14°C° 0 mm 1 mps 767 mmHg 69%
    19:00 +13°C° 0 mm 1 mps 767 mmHg 71%
    20:00 +13°C° 0 mm 1 mps 768 mmHg 73%
    21:00 +12°C° 0 mm 2 mps 768 mmHg 75%
    22:00 +12°C° 0 mm 2 mps 768 mmHg 74%
    23:00 +10°C° 0 mm 2 mps 768 mmHg 74%

    23 February, Saturday

    Time Temperature Precipitation Wind Pressure Humidity
    00:00 +10°C° 0 mm 3 mps 768 mmHg 73%
    01:00 +10°C° 0 mm 3 mps 768 mmHg 73%
    02:00 +9°C° 0 mm 3 mps 768 mmHg 72%
    03:00 +9°C° 0 mm 3 mps 768 mmHg 72%
    04:00 +9°C° 0 mm 3 mps 768 mmHg 70%
    05:00 +9°C° 0 mm 3 mps 768 mmHg 69%
    06:00 +9°C° 0 mm 3 mps 768 mmHg 67%
    07:00 +10°C° 0 mm 4 mps 769 mmHg 65%
    08:00 +11°C° 0 mm 4 mps 769 mmHg 62%
    09:00 +12°C° 0 mm 5 mps 769 mmHg 60%
    10:00 +14°C° 0 mm 5 mps 769 mmHg 58%
    11:00 +15°C° 0 mm 5 mps 769 mmHg 55%
    12:00 +18°C° 0 mm 4 mps 769 mmHg 53%
    13:00 +19°C° 0 mm 4 mps 769 mmHg 52%
    14:00 +19°C° 0 mm 4 mps 769 mmHg 52%
    15:00 +20°C° 0 mm 3 mps 768 mmHg 51%
    16:00 +18°C° 0 mm 3 mps 769 mmHg 57%
    17:00 +16°C° 0 mm 2 mps 769 mmHg 63%
    18:00 +14°C° 0 mm 2 mps 769 mmHg 69%
    19:00 +13°C° 0 mm 2 mps 769 mmHg 71%
    20:00 +13°C° 0 mm 2 mps 770 mmHg 73%
    21:00 +12°C° 0 mm 2 mps 770 mmHg 75%
    22:00 +10°C° 0 mm 2 mps 770 mmHg 76%
    23:00 +10°C° 0 mm 2 mps 770 mmHg 76%
    Show more